[[[{"header":{"parameterUnit":"kt","parameterCategory":2,"dx":1,"dy":1,"la1":30.253999710083008,"la2":30.299108505249023,"lo1":-89.0895004272461,"lo2":-89.04439544677734,"nx":28,"ny":28,"refTime":"2022-09-20T15:00:00:Z","depth":0,"parameterNumber":1,"parameterNumberName":"U-component_of_WINDS"},"data":[0.6166,0.6103,0.6096,0.602,0.6001,0.5946,0.5924,0.5894,0.5868,0.5801,0.576,0.5743,0.5711,0.5658,0.5611,0.5604,0.5583,0.5569,0.5562,0.5641,0.565,0.566,0.5675,0.5565,0.5565,0.5481,0.548,0.548,0.6228,0.6209,0.6167,0.612,0.6084,0.6095,0.6058,0.6025,0.5975,0.5942,0.5901,0.5839,0.5788,0.5759,0.5708,0.5676,0.5675,0.5662,0.5662,0.5656,0.5741,0.5757,0.5663,0.5663,0.5663,0.5663,0.5663,0.5663,0.6339,0.6302,0.6269,0.6223,0.6197,0.6165,0.6127,0.6108,0.6064,0.6012,0.6009,0.595,0.5912,0.5844,0.5817,0.577,0.5782,0.5763,0.5757,0.5752,0.5748,0.5869,0.5761,0.5761,0.5761,0.5761,0.5761,0,0.6417,0.6414,0.6372,0.6328,0.6293,0.6257,0.6222,0.6198,0.6183,0.6147,0.6093,0.606,0.5994,0.594,0.5888,0.5863,0.5864,0.5864,0.585,0.585,0.5858,0.5851,0.5988,0.5866,0.5866,0.5867,0.5868,0.5868,0.6526,0.6484,0.6445,0.6416,0.6395,0.6348,0.6318,0.6308,0.6276,0.623,0.6195,0.6142,0.6098,0.601,0.5983,0.5932,0.5931,0.5886,0.5922,0.5926,0.5927,0.5929,0.5924,0.5877,0.5876,0.5875,0.5874,0,0.6589,0.6575,0.6505,0.6469,0.6458,0.6413,0.6381,0.6341,0.6325,0.6267,0.6253,0.6227,0.6172,0.6152,0.6084,0.6075,0.5995,0.5997,0.6009,0.6008,0.5964,0.5967,0.5827,0.5807,0.5923,0.5922,0.5921,0,0.6675,0.6617,0.66,0.6559,0.6496,0.6487,0.6423,0.6403,0.637,0.6325,0.6326,0.6282,0.6263,0.6216,0.6202,0.6134,0.6121,0.6109,0.6105,0.6107,0.6108,0.6085,0.6089,0.6101,0.6102,0.6102,0.6103,0,0.6771,0.6694,0.6629,0.6609,0.6562,0.6532,0.651,0.6473,0.6442,0.6399,0.6378,0.6327,0.6299,0.6259,0.6241,0.6266,0.6157,0.6188,0.6144,0.6144,0.6117,0.6118,0.6003,0.6104,0.6104,0.6104,0.6104,0,0.6836,0.6796,0.6705,0.6666,0.6646,0.6602,0.6553,0.6511,0.6471,0.646,0.6425,0.6421,0.6361,0.6394,0.631,0.6348,0.6319,0.6302,0.6299,0.6288,0.6325,0.6259,0.6155,0.6141,0.6285,0.6286,0.6288,0,0.695,0.6853,0.6844,0.6756,0.6708,0.6714,0.6665,0.6629,0.661,0.6565,0.6543,0.649,0.651,0.649,0.6452,0.6425,0.6375,0.6432,0.6361,0.6359,0.6371,0.6275,0.6263,0.6181,0.6307,0.6305,0.6303,0,0.7035,0.698,0.6965,0.6941,0.6893,0.6852,0.6796,0.6743,0.6713,0.6672,0.6623,0.6548,0.656,0.6526,0.6516,0.6477,0.6409,0.6493,0.6492,0.6477,0.6315,0.6304,0.629,0.6411,0.6408,0.6407,0.6318,0,0.7135,0.7084,0.7043,0.6988,0.6954,0.6897,0.6877,0.6843,0.6839,0.682,0.6747,0.6708,0.6649,0.6628,0.6622,0.654,0.6549,0.6561,0.6587,0.6526,0.6495,0.6483,0.6634,0.6635,0.6636,0.6636,0,0,0.7245,0.7171,0.7162,0.7107,0.7077,0.7082,0.7022,0.6993,0.6932,0.691,0.6926,0.6813,0.678,0.6692,0.6671,0.6648,0.663,0.6651,0.6556,0.6547,0.6539,0.6507,0.6495,0.6637,0.6637,0.6637,0.6638,0,0.7277,0.7249,0.7192,0.7163,0.7118,0.71,0.7087,0.7041,0.7025,0.6954,0.6954,0.6907,0.6816,0.678,0.675,0.6663,0.6663,0.6647,0.6607,0.6562,0.6553,0.6544,0.6511,0.65,0.6639,0.6639,0.6639,0,0.7355,0.7324,0.7295,0.7228,0.7197,0.7146,0.7172,0.7117,0.7078,0.7079,0.7007,0.6982,0.6932,0.6852,0.6815,0.6827,0.6694,0.6732,0.6727,0.6721,0.6676,0.6665,0.6655,0.6788,0.6789,0.6789,0,0,0.7385,0.7337,0.7298,0.7233,0.7214,0.7186,0.7157,0.7149,0.7106,0.7089,0.7056,0.7012,0.6959,0.6924,0.6872,0.6788,0.6775,0.6751,0.6744,0.6738,0.6729,0.6683,0.6671,0.6791,0.6792,0.6792,0,0,0.7397,0.735,0.7354,0.7276,0.7238,0.7192,0.7151,0.7153,0.7105,0.7109,0.7088,0.7075,0.7,0.6974,0.7009,0.688,0.6908,0.6899,0.69,0.689,0.6883,0.689,0.7025,0,0,0,0,0,0.7418,0.7357,0.7361,0.7345,0.7257,0.7191,0.7179,0.7163,0.7184,0.7153,0.7125,0.7127,0.6989,0.702,0.7002,0.6961,0.6822,0.6817,0.6812,0.6793,0.6784,0.6776,0,0,0,0,0,0,0.7412,0.7392,0.7362,0.7314,0.7294,0.7193,0.7224,0.7218,0.7187,0.7189,0.7133,0.7126,0.7108,0.7027,0.7012,0.6973,0.703,0.682,0.6815,0.6811,0.679,0.6782,0.6776,0,0,0,0,0,0.7406,0.7391,0.7255,0.7315,0.7298,0.7262,0.7226,0.7222,0.7197,0.7153,0.7146,0.7187,0.7108,0.7093,0.7018,0.6981,0.7041,0.7035,0.6817,0.6813,0.681,0.6786,0,0,0,0,0,0,0.7402,0.7384,0.7251,0.7245,0.7337,0.7267,0.7256,0.7225,0.7162,0.7155,0.7206,0.7209,0.7106,0.7095,0.7084,0.6985,0.7049,0.7043,0.704,0.6814,0.6811,0.6809,0,0,0,0,0,0,0.7393,0.7379,0.7248,0.7277,0.7274,0.7272,0.7262,0.7195,0.7161,0.7219,0.7219,0.7208,0.7122,0.7097,0.7088,0.6983,0.7056,0.705,0.7046,0.7044,0.6812,0.681,0,0,0,0,0,0,0.7387,0.7375,0.7278,0.7276,0.7274,0.7205,0.7212,0.7122,0.719,0.7222,0.7195,0.7198,0.7123,0.7114,0.709,0.699,0.6985,0.7056,0.7052,0.7049,0.7047,0,0,0,0,0,0,0,0.7382,0.7464,0.7287,0.7275,0.7273,0.719,0.7188,0.7187,0.7191,0.7193,0.7195,0.7197,0.7088,0.7082,0.7076,0.6995,0,0,0.7056,0.7054,0,0,0,0,0,0,0,0,0.7468,0.7465,0.7287,0.7286,0.7284,0.719,0.7188,0.7187,0.7191,0.7193,0.7194,0.7196,0.7087,0.7082,0.7077,0,0,0,0,0,0,0,0,0,0,0,0,0,0,0,0.7287,0.7286,0,0.719,0.7188,0.7187,0.7191,0.7193,0.7194,0.7195,0.7085,0.7081,0.7077,0,0,0,0,0,0,0,0,0,0,0,0,0,0,0,0,0,0,0,0,0,0,0,0,0,0,0,0,0,0,0,0,0,0,0,0,0,0,0,0,0,0,0,0,0,0,0,0,0,0,0,0,0,0,0,0,0,0,0,0,0,0,0,0,0,0,0,0,0]}],[{"header":{"parameterUnit":"kt","parameterCategory":2,"dx":1,"dy":1,"la1":30.253999710083008,"la2":30.299108505249023,"lo1":-89.0895004272461,"lo2":-89.04439544677734,"nx":28,"ny":28,"refTime":"2022-09-20T15:00:00:Z","depth":0,"parameterNumber":2,"parameterNumberName":"V-component_of_WINDS"},"data":[-5.406,-5.4202,-5.4214,-5.438,-5.4419,-5.4534,-5.4579,-5.4638,-5.4687,-5.4825,-5.4906,-5.4931,-5.4984,-5.5082,-5.5169,-5.5178,-5.5215,-5.5257,-5.526,-5.5061,-5.5034,-5.5008,-5.4976,-5.5265,-5.5265,-5.5465,-5.5467,-5.5468,-5.3916,-5.3956,-5.4047,-5.4143,-5.4221,-5.4188,-5.4261,-5.4328,-5.4432,-5.4493,-5.4573,-5.4695,-5.4792,-5.483,-5.4925,-5.499,-5.4979,-5.5015,-5.501,-5.5019,-5.4806,-5.4772,-5.5023,-5.5022,-5.5022,-5.5022,-5.5022,-5.5022,-5.3655,-5.3739,-5.3804,-5.3903,-5.3954,-5.4018,-5.41,-5.4128,-5.4217,-5.4318,-5.4312,-5.4429,-5.4491,-5.4609,-5.4651,-5.4741,-5.4703,-5.4745,-5.4756,-5.4767,-5.4778,-5.449,-5.4757,-5.4757,-5.4756,-5.4756,-5.4755,0,-5.3468,-5.3472,-5.3559,-5.3651,-5.3723,-5.3795,-5.3862,-5.3913,-5.3922,-5.3994,-5.41,-5.4162,-5.4284,-5.4384,-5.4474,-5.4508,-5.4479,-5.4476,-5.4506,-5.4511,-5.4504,-5.451,-5.4164,-5.4468,-5.4466,-5.4464,-5.4463,-5.4462,-5.3206,-5.3302,-5.3374,-5.3435,-5.3474,-5.357,-5.363,-5.3631,-5.3694,-5.3775,-5.3849,-5.3948,-5.4028,-5.4194,-5.4223,-5.4314,-5.4301,-5.4416,-5.4314,-5.4315,-5.4304,-5.4298,-5.4308,-5.4436,-5.4439,-5.4442,-5.4444,0,-5.3058,-5.3075,-5.3227,-5.3288,-5.3306,-5.3407,-5.3458,-5.3541,-5.3559,-5.3675,-5.3703,-5.373,-5.3832,-5.3843,-5.3962,-5.3964,-5.413,-5.4114,-5.4109,-5.4107,-5.4212,-5.4202,-5.4549,-5.4595,-5.4294,-5.4297,-5.43,0,-5.2842,-5.2967,-5.2985,-5.3072,-5.3212,-5.3209,-5.3347,-5.3376,-5.3429,-5.3521,-5.3489,-5.3576,-5.3576,-5.3664,-5.3668,-5.3805,-5.3826,-5.3836,-5.3836,-5.384,-5.3839,-5.3873,-5.3859,-5.383,-5.3828,-5.3827,-5.3825,0,-5.2608,-5.2764,-5.2906,-5.2944,-5.302,-5.3087,-5.3122,-5.318,-5.3238,-5.3314,-5.3352,-5.344,-5.3489,-5.3558,-5.3562,-5.3493,-5.3729,-5.3634,-5.374,-5.374,-5.3791,-5.3788,-5.4093,-5.3823,-5.3822,-5.3822,-5.3821,0,-5.2435,-5.2514,-5.2716,-5.2779,-5.282,-5.2913,-5.3001,-5.3083,-5.3147,-5.3155,-5.3215,-5.3194,-5.3314,-5.3219,-5.3384,-5.3293,-5.3343,-5.3363,-5.3371,-5.3382,-5.3276,-5.3447,-5.3736,-5.3767,-5.3393,-5.3389,-5.3386,0,-5.2165,-5.2373,-5.2371,-5.2563,-5.2661,-5.2619,-5.2722,-5.2779,-5.2799,-5.2884,-5.2905,-5.3002,-5.2933,-5.2965,-5.3045,-5.307,-5.3189,-5.3054,-5.3176,-5.3181,-5.3162,-5.3428,-5.3468,-5.3671,-5.334,-5.3345,-5.3349,0,-5.1956,-5.2047,-5.2082,-5.2125,-5.22,-5.2281,-5.2399,-5.2494,-5.2551,-5.2618,-5.2717,-5.2852,-5.2806,-5.2858,-5.285,-5.2933,-5.3109,-5.2872,-5.2873,-5.2915,-5.3318,-5.3356,-5.339,-5.3085,-5.309,-5.3095,-5.3312,0,-5.1693,-5.1798,-5.1891,-5.1986,-5.205,-5.217,-5.2182,-5.2247,-5.2234,-5.2251,-5.2396,-5.2444,-5.2539,-5.258,-5.2567,-5.2753,-5.2723,-5.2673,-5.2581,-5.2755,-5.2827,-5.2856,-5.2473,-5.247,-5.2468,-5.2466,0,0,-5.143,-5.1581,-5.1574,-5.1688,-5.1742,-5.1696,-5.1823,-5.1869,-5.1964,-5.2002,-5.1951,-5.2148,-5.2189,-5.2364,-5.2419,-5.2457,-5.2491,-5.2429,-5.2672,-5.2695,-5.2716,-5.2793,-5.2823,-5.2462,-5.2462,-5.2461,-5.246,0,-5.1336,-5.138,-5.1506,-5.1554,-5.1625,-5.1637,-5.1667,-5.1729,-5.1745,-5.1887,-5.1845,-5.1933,-5.209,-5.2139,-5.2185,-5.2409,-5.2372,-5.2437,-5.2554,-5.2649,-5.2675,-5.2698,-5.2779,-5.2807,-5.2455,-5.2455,-5.2455,0,-5.1133,-5.1179,-5.124,-5.1359,-5.1405,-5.1505,-5.1412,-5.1522,-5.1596,-5.1538,-5.1678,-5.1706,-5.1772,-5.1935,-5.2008,-5.1964,-5.2264,-5.217,-5.2184,-5.2193,-5.2285,-5.2316,-5.2343,-5.1979,-5.1977,-5.1976,0,0,-5.105,-5.1147,-5.1195,-5.134,-5.1371,-5.1391,-5.1445,-5.1436,-5.1497,-5.1522,-5.1557,-5.1617,-5.1708,-5.1768,-5.1853,-5.203,-5.2044,-5.2111,-5.2134,-5.2152,-5.217,-5.2267,-5.2298,-5.1969,-5.1969,-5.1969,0,0,-5.101,-5.1072,-5.1047,-5.1216,-5.1276,-5.1332,-5.1419,-5.139,-5.1468,-5.1455,-5.1445,-5.1461,-5.1612,-5.1641,-5.1555,-5.1821,-5.173,-5.175,-5.1796,-5.1825,-5.1847,-5.1837,-5.1465,0,0,0,0,0,-5.0919,-5.1064,-5.1041,-5.1071,-5.122,-5.1345,-5.1363,-5.1359,-5.1295,-5.1365,-5.1389,-5.1346,-5.1593,-5.1516,-5.1545,-5.1641,-5.1887,-5.1902,-5.1915,-5.2016,-5.2046,-5.2071,0,0,0,0,0,0,-5.0931,-5.0968,-5.1037,-5.1099,-5.1132,-5.1339,-5.123,-5.1233,-5.1287,-5.1277,-5.1343,-5.1348,-5.1346,-5.15,-5.1527,-5.1619,-5.1456,-5.1893,-5.1905,-5.1916,-5.2027,-5.2051,-5.2072,0,0,0,0,0,-5.094,-5.097,-5.121,-5.1097,-5.1126,-5.1154,-5.1225,-5.1226,-5.1268,-5.1306,-5.1309,-5.126,-5.1348,-5.137,-5.1516,-5.1607,-5.1437,-5.1447,-5.1901,-5.1911,-5.1919,-5.2038,0,0,0,0,0,0,-5.0947,-5.0972,-5.1216,-5.1224,-5.1042,-5.1143,-5.1158,-5.122,-5.1292,-5.1298,-5.1221,-5.1212,-5.1352,-5.1368,-5.1386,-5.1603,-5.1422,-5.1432,-5.1439,-5.1908,-5.1916,-5.1923,0,0,0,0,0,0,-5.0956,-5.0979,-5.122,-5.1151,-5.1151,-5.1132,-5.1146,-5.1268,-5.1294,-5.1204,-5.1199,-5.1216,-5.1326,-5.1368,-5.1381,-5.1572,-5.1411,-5.142,-5.1427,-5.1431,-5.1914,-5.192,0,0,0,0,0,0,-5.0966,-5.0986,-5.1148,-5.1149,-5.1149,-5.1246,-5.124,-5.1392,-5.1236,-5.1201,-5.1221,-5.1215,-5.1327,-5.134,-5.1378,-5.1564,-5.157,-5.1411,-5.1418,-5.1422,-5.1425,0,0,0,0,0,0,0,-5.0974,-5.0839,-5.1165,-5.1147,-5.1147,-5.1304,-5.1307,-5.1309,-5.1234,-5.1229,-5.1223,-5.1218,-5.1356,-5.1366,-5.1377,-5.1558,0,0,-5.141,-5.1415,0,0,0,0,0,0,0,0,-5.0831,-5.0837,-5.1165,-5.1167,-5.1168,-5.1305,-5.1306,-5.1308,-5.1233,-5.1229,-5.1224,-5.122,-5.1359,-5.1367,-5.1376,0,0,0,0,0,0,0,0,0,0,0,0,0,0,0,-5.1165,-5.1167,0,-5.1305,-5.1306,-5.1308,-5.1233,-5.1229,-5.1225,-5.1221,-5.1361,-5.1368,-5.1375,0,0,0,0,0,0,0,0,0,0,0,0,0,0,0,0,0,0,0,0,0,0,0,0,0,0,0,0,0,0,0,0,0,0,0,0,0,0,0,0,0,0,0,0,0,0,0,0,0,0,0,0,0,0,0,0,0,0,0,0,0,0,0,0,0,0,0,0,0]}]]]